DateTimeUTC,F1_A11,F1_S11,BsB_S11,BsG_S11,BsR_S11,BbsB_S11,BbsG_S11,BbsR_S11,BaB_A11,BaG_A11,BaR_A11,Tu_S11,T_S11,Uu_S11,U_S11,P_S11,T1_A11
2021-02-16T19:00:00Z,00000200,21000000,,,,,,,-000.05,0000.05,-000.28,16.8,23.5,,00.0,0628.0,31.0
2021-02-16T19:01:00Z,00000200,21000000,,,,,,,-000.18,-000.34,-000.04,16.8,23.5,,00.0,0628.0,31.0
2021-02-16T19:02:00Z,00000200,21000000,,,,,,,0000.33,0000.07,0000.06,16.7,23.5,,00.0,0628.0,31.0
2021-02-16T19:03:00Z,00000200,61000000,,,,,,,-000.13,0000.21,0000.14,16.7,23.5,,00.0,0628.0,31.0
2021-02-16T19:04:00Z,00000200,41000000,-000.05,0000.16,0000.47,-000.13,-000.05,0000.64,0000.01,-000.47,-000.31,16.9,23.3,,00.0,0628.8,31.0
2021-02-16T19:05:00Z,00000200,01000000,0001.03,0000.31,0000.16,-000.15,-000.08,0000.04,0000.34,0000.64,0000.40,16.9,23.3,,00.0,0628.9,31.0
2021-02-16T19:06:00Z,00000200,01000000,0000.09,0000.01,-000.04,-000.16,-000.18,0000.23,0000.31,0000.13,0000.33,17.0,23.3,,00.0,0628.9,31.0
2021-02-16T19:07:00Z,00000200,01000000,0000.43,0000.20,0000.53,-000.07,-000.08,0000.01,0000.05,-000.14,-000.19,17.1,23.3,,00.0,0628.9,31.0
2021-02-16T19:08:00Z,00000200,01000000,0000.30,0000.07,0000.08,-000.55,-000.34,-000.02,-000.13,0000.53,0000.23,17.2,23.3,,00.0,0628.9,31.0
2021-02-16T19:09:00Z,00000200,01000000,0000.15,0000.24,-000.07,-000.37,-000.08,0000.05,0000.23,-000.18,-000.21,17.3,23.4,,00.0,0629.0,31.0
2021-02-16T19:10:00Z,00000200,01000000,-000.39,0000.24,0000.29,0000.12,-000.16,0000.17,0000.02,0000.11,0000.47,17.4,23.4,,00.0,0629.0,31.0
2021-02-16T19:11:00Z,00000200,01000000,-000.03,0000.03,-000.15,-000.23,-000.41,0000.28,0000.04,0000.21,0000.15,17.5,23.5,,00.0,0629.0,31.1
2021-02-16T19:12:00Z,00000200,01000000,0000.75,0000.10,0000.09,-000.26,-000.06,0000.44,0000.11,0000.15,-000.08,17.6,23.5,,00.0,0629.0,31.1
2021-02-16T19:13:00Z,00000200,01000000,0000.78,0000.06,-000.00,-000.48,-000.20,-000.03,-000.05,0000.17,0000.31,17.7,23.6,,00.0,0629.1,31.1
2021-02-16T19:14:00Z,00000200,01000000,0000.27,0000.09,-000.12,0000.08,-000.12,0000.09,-000.02,-000.12,-000.31,17.8,23.6,,00.0,0629.1,31.1
2021-02-16T19:15:00Z,00000200,01000000,0000.17,0000.11,0000.14,-000.07,0000.18,0000.03,-000.06,-000.05,-000.38,17.9,23.7,,00.0,0629.1,31.1
2021-02-16T19:16:00Z,00000200,01000000,-000.13,0000.17,-000.11,-000.61,-000.16,0000.28,-000.03,0000.03,0000.40,17.9,23.7,,00.0,0629.1,31.1
2021-02-16T19:17:00Z,00000200,01000000,-000.14,0000.08,-000.19,-000.32,-000.09,0000.25,0000.11,0000.08,-000.19,17.8,23.7,,00.0,0629.1,31.1
2021-02-16T19:18:00Z,00000200,01000000,0000.30,0000.17,0000.27,0000.05,0000.11,0000.18,-000.33,-000.34,0000.19,17.8,23.7,,00.0,0629.1,31.1
2021-02-16T19:19:00Z,00000200,01000000,0000.76,0000.39,-000.18,-000.33,-000.23,-000.13,0000.33,0000.06,-000.08,17.8,23.7,,00.0,0629.2,31.1
2021-02-16T19:20:00Z,00000200,01000000,0000.21,0000.05,0000.18,-000.08,-000.14,0000.25,-000.33,-000.01,-000.36,17.7,23.7,,00.0,0629.2,31.1
2021-02-16T19:21:00Z,00000200,01000000,0000.81,0000.22,0000.07,0000.16,0000.03,0000.20,-000.17,-000.17,0000.11,17.7,23.7,,00.0,0629.2,31.0
2021-02-16T19:22:00Z,00000200,01000000,0000.43,-000.16,0000.03,-000.77,-000.18,0000.40,0000.33,-000.38,-000.14,17.6,23.7,,00.0,0629.2,31.1
2021-02-16T19:23:00Z,00000200,01000000,0000.48,0000.21,0000.11,-000.32,0000.06,-000.06,-000.29,0000.45,0000.09,17.6,23.6,,00.0,0629.2,31.0
2021-02-16T19:24:00Z,00000200,01000000,-000.66,-000.10,-000.10,-000.54,-000.12,0000.03,0000.03,-000.33,0000.01,17.6,23.6,,00.0,0629.2,31.0
2021-02-16T19:25:00Z,00000200,01000000,0000.73,0000.10,0000.22,-000.43,-000.15,0000.40,0000.04,0000.20,0000.01,17.5,23.6,,00.0,0629.2,31.0
2021-02-16T19:26:00Z,00000200,01000000,0000.05,-000.01,0000.34,-000.61,-000.11,0000.21,0000.14,-000.03,-000.31,17.5,23.6,,00.0,0629.2,31.0
2021-02-16T19:27:00Z,00000200,01000000,-000.39,-000.19,-000.10,0000.10,-000.26,-000.00,0000.07,-000.14,0000.09,17.5,23.6,,00.0,0629.2,31.0
2021-02-16T19:28:00Z,00000200,01000000,0000.68,-000.22,-000.05,0000.12,-000.12,0000.31,-000.04,0000.20,0000.02,17.4,23.5,,00.0,0629.2,31.0
2021-02-16T19:29:00Z,00000200,01000000,0000.31,0000.04,0000.00,0000.22,-000.23,0000.37,-000.02,-000.22,0000.04,17.4,23.5,,00.0,0629.2,31.0
2021-02-16T19:30:00Z,00000200,01000000,0000.26,-000.13,0000.08,0000.16,-000.21,0000.42,0000.20,0000.12,-000.04,17.4,23.5,,00.0,0629.2,31.0
2021-02-16T19:31:00Z,00000200,01000000,0000.77,0000.07,-000.07,-000.53,-000.15,-000.13,-000.08,0000.05,-000.15,17.3,23.5,,00.0,0629.2,31.0
2021-02-16T19:32:00Z,00000200,01000000,0000.36,0000.20,-000.27,-000.68,-000.03,-000.02,-000.16,0000.02,0000.49,17.3,23.5,,00.0,0629.2,31.0
2021-02-16T19:33:00Z,00000200,01000000,0000.63,-000.10,0000.32,-000.47,0000.01,-000.11,0000.20,-000.12,-000.11,17.3,23.5,,00.0,0629.2,31.0
2021-02-16T19:34:00Z,00000200,01000000,-000.23,-000.19,0000.07,-000.07,0000.04,0000.14,-000.17,0000.52,0000.14,17.2,23.4,,00.0,0629.2,31.0
2021-02-16T19:35:00Z,00000200,01000000,-000.23,0000.35,-000.02,-000.65,0000.19,-000.23,-000.05,-000.48,0000.20,17.2,23.4,,00.0,0629.3,31.0
2021-02-16T19:36:00Z,00000200,01000000,-000.11,0000.06,0000.07,-000.31,0000.04,0000.47,0000.32,0000.10,-000.35,17.2,23.4,,00.0,0629.3,31.0
2021-02-16T19:37:00Z,00000200,01000000,0000.54,0000.18,0000.28,-000.26,-000.21,0000.23,-000.31,0000.17,-000.01,17.2,23.4,,00.0,0629.3,31.0
2021-02-16T19:38:00Z,00000200,01000000,0000.38,-000.07,-000.07,-000.05,-000.03,0000.19,0000.23,-000.13,0000.16,17.1,23.4,,00.0,0629.3,31.0
2021-02-16T19:39:00Z,00000200,01000000,0000.25,0000.17,0000.23,-000.16,0000.01,0000.21,-000.15,0000.15,-000.16,17.1,23.3,,00.0,0629.3,31.0
2021-02-16T19:40:00Z,00000200,01000000,0000.06,-000.03,-000.11,-000.17,-000.02,0000.10,-000.19,-000.36,0000.20,17.1,23.3,,00.0,0629.3,31.0
2021-02-16T19:41:00Z,00000200,01000000,-000.56,0000.60,0000.01,-000.29,-000.23,-000.00,0000.11,0000.10,-000.40,17.1,23.3,,00.0,0629.3,31.0
2021-02-16T19:42:00Z,00000200,01000000,0000.70,0000.08,-000.15,-000.06,-000.14,-000.15,0000.07,-000.05,0000.16,17.1,23.3,,00.0,0629.4,31.0
2021-02-16T19:43:00Z,00000200,01000000,0000.52,-000.08,-000.16,-000.02,0000.13,-000.12,-000.04,-000.09,0000.16,17.0,23.3,,00.0,0629.4,31.0
2021-02-16T19:44:00Z,00000200,01000000,0000.15,-000.05,0000.08,-000.10,-000.05,0000.21,-000.23,-000.22,-000.15,17.0,23.3,,00.0,0629.4,31.0
2021-02-16T19:45:00Z,00000200,01000000,-000.03,-000.05,0000.36,0000.08,0000.07,0000.24,0000.05,0000.42,0000.02,17.0,23.2,,00.0,0629.4,31.0
2021-02-16T19:46:00Z,00000200,01000000,0000.18,0000.01,0000.25,-000.27,-000.13,0000.21,-000.07,-000.24,0000.11,17.0,23.2,,00.0,0629.4,31.0
2021-02-16T19:47:00Z,00000200,01000000,0000.39,0000.26,0000.07,0000.04,0000.09,0000.41,0000.05,-000.05,-000.16,17.0,23.2,,00.0,0629.4,31.0
2021-02-16T19:48:00Z,00000200,01000000,0000.64,0000.05,0000.15,-000.07,-000.03,-000.12,0000.18,0000.39,-000.13,16.9,23.2,,00.0,0629.5,31.0
2021-02-16T19:49:00Z,00000200,01000000,0000.12,-000.00,0000.24,-000.31,-000.04,0000.16,-000.02,-000.60,0000.07,16.9,23.2,,00.0,0629.5,31.0
2021-02-16T19:50:00Z,00000200,01000000,0000.11,0000.04,-000.39,0000.09,-000.10,-000.09,0000.37,0000.11,-000.00,16.9,23.1,,00.0,0629.5,31.0
2021-02-16T19:51:00Z,00000200,01000000,-000.20,0000.01,0000.00,0000.05,0000.06,-000.08,-000.06,0000.50,0000.40,17.0,23.2,,00.0,0629.6,31.0
2021-02-16T19:52:00Z,00000200,01000000,0000.60,0000.06,0000.10,-000.19,-000.01,-000.04,-000.27,-000.05,-000.37,17.1,23.2,,00.0,0629.6,31.0
2021-02-16T19:53:00Z,00000200,01000000,0000.48,0000.01,-000.16,0000.13,-000.23,-000.03,0000.12,-000.20,0000.33,17.1,23.2,,00.0,0629.6,31.0
2021-02-16T19:54:00Z,00000200,01000000,-000.47,0000.36,0000.24,-000.06,-000.17,0000.17,-000.11,-000.03,-000.17,17.1,23.2,,00.0,0629.6,31.0
2021-02-16T19:55:00Z,00000200,01000000,0000.37,0000.33,0000.31,0000.09,0000.24,0000.21,-000.27,-000.01,-000.25,17.1,23.2,,00.0,0629.6,31.0
2021-02-16T19:56:00Z,00000200,01000000,0000.28,0000.20,0000.12,0000.09,0000.06,-000.04,-000.04,-000.44,0000.05,17.1,23.2,,00.0,0629.7,31.0
2021-02-16T19:57:00Z,00000200,41000000,,,,,,,0000.17,0000.25,-000.24,17.1,23.2,,00.0,0629.6,31.0
2021-02-16T19:58:00Z,00000200,61000000,,,,,,,-000.32,-000.18,-000.13,16.8,23.3,,00.0,0628.8,31.0
2021-02-16T19:59:00Z,00000200,21000000,,,,,,,-000.12,-000.12,0000.30,16.8,23.4,,00.0,0628.8,31.0
